[[{"header":{"parameterUnit":"m.s-1","parameterCategory":1,"la1":30.2991,"la2":30.254,"lo1":-89.0895,"lo2":-89.0444,"dy":0.0017,"dx":0.0017,"nx":28,"ny":28,"refTime":"2024-07-30T09:00:00:Z","depth":0,"parameterNumber":2,"parameterNumberName":"U-component_of_WINDS"},"data":[0,0,0,0,0,0,0,0,0,0,0,0,0,0,0,0,0,0,0,0,0,0,0,0,0,0,0,0,0,0,0,0,0,0,0,0,0,0,0,0,0,0,0,0,0,0,0,0,0,0,0,0,0,0,0,0,0,0,2.3893,2.3894,0,2.3944,2.3944,2.3945,2.3907,2.3906,2.3904,2.3902,2.3955,2.3957,2.396,0,0,0,0,0,0,0,0,0,0,0,0,0,2.3762,2.3764,2.3893,2.3894,2.3894,2.3944,2.3944,2.3945,2.3908,2.3906,2.3904,2.3902,2.3954,2.3957,2.3961,0,0,0,0,0,0,0,0,0,0,0,0,0,2.3816,2.3765,2.3893,2.3882,2.3881,2.3944,2.3944,2.3945,2.3908,2.3906,2.3903,2.3901,2.3952,2.3957,2.3961,2.4038,0,0,2.3974,2.3976,0,0,0,0,0,0,0,0,2.3813,2.3821,2.3883,2.3882,2.3882,2.3917,2.3917,2.3976,2.3909,2.3898,2.3902,2.39,2.3944,2.3949,2.3964,2.404,2.4042,2.3975,2.3977,2.3979,2.3981,0,0,0,0,0,0,0,2.381,2.3819,2.3913,2.3884,2.3883,2.3873,2.3878,2.3928,2.3934,2.3899,2.3896,2.3902,2.3943,2.396,2.3965,2.4043,2.3975,2.3979,2.3981,2.3983,2.418,2.4183,0,0,0,0,0,0,2.3807,2.3816,2.3911,2.3915,2.3841,2.3878,2.3883,2.3908,2.3933,2.3935,2.3905,2.3901,2.3953,2.396,2.3966,2.4055,2.3979,2.3983,2.3986,2.4178,2.4181,2.4184,0,0,0,0,0,0,2.3804,2.3816,2.3909,2.3865,2.3876,2.3883,2.3911,2.391,2.3927,2.3938,2.3939,2.392,2.3952,2.396,2.4019,2.4056,2.3985,2.3989,2.4175,2.4179,2.4182,2.4234,0,0,0,0,0,0,2.3801,2.3815,2.3845,2.3866,2.3878,2.3962,2.3913,2.3913,2.3934,2.393,2.3953,2.3954,2.395,2.4013,2.4024,2.4061,2.3993,2.4171,2.4176,2.4181,2.4229,2.4239,2.4248,0,0,0,0,0,2.3796,2.3858,2.3847,2.3858,2.3916,2.3964,2.3972,2.3966,2.3938,2.3967,2.3973,2.3954,2.4051,2.4019,2.4031,2.407,2.4169,2.4175,2.4181,2.4225,2.4237,2.4248,0,0,0,0,0,0,2.3843,2.3861,2.3848,2.3919,2.394,2.3958,2.3995,2.398,2.401,2.4004,2.3995,2.4001,2.4062,2.4072,2.4037,2.4144,2.4105,2.4114,2.4135,2.4146,2.4156,2.4151,2.3996,0,0,0,0,0,2.3861,2.39,2.3913,2.3974,2.3986,2.3988,2.401,2.4003,2.4025,2.4034,2.4045,2.4067,2.4101,2.4125,2.4158,2.423,2.4233,2.4263,2.4272,2.428,2.4287,2.4323,2.4335,2.4203,2.4203,2.4203,0,0,2.39,2.3914,2.3939,2.3984,2.4,2.4038,2.3996,2.404,2.4068,2.404,2.4096,2.4105,2.4128,2.4193,2.4223,2.4204,2.4324,2.4288,2.4294,2.4296,2.433,2.4343,2.4354,2.4207,2.4206,2.4206,0,0,2.3989,2.4005,2.4056,2.4072,2.4096,2.4097,2.411,2.4129,2.4133,2.4189,2.4168,2.4201,2.4263,2.4279,2.4296,2.4388,2.437,2.44,2.4448,2.4483,2.4494,2.4503,2.4533,2.4544,2.4407,2.4407,2.4407,0,2.4034,2.4092,2.4084,2.4129,2.4148,2.4123,2.4174,2.419,2.4224,2.4237,2.4215,2.4289,2.4304,2.4371,2.4393,2.4408,2.442,2.4396,2.4493,2.4502,2.451,2.4539,2.4551,2.441,2.441,2.4409,2.4409,0,2.4144,2.4185,2.4223,2.4254,2.4278,2.4325,2.4324,2.4348,2.4339,2.4342,2.4397,2.4414,2.4448,2.4464,2.4456,2.4529,2.4516,2.4494,2.4455,2.4526,2.4553,2.4564,2.4415,2.4414,2.4413,2.4412,0,0,2.4265,2.429,2.4304,2.4317,2.434,2.4371,2.4416,2.4449,2.4469,2.4493,2.4529,2.458,2.4559,2.4577,2.4571,2.4602,2.4671,2.4576,2.4576,2.4591,2.4749,2.4763,2.4776,2.4659,2.4662,2.4663,2.4746,0,2.4353,2.4432,2.4425,2.4498,2.4534,2.451,2.4549,2.4567,2.4571,2.4601,2.4605,2.464,2.4611,2.4621,2.4651,2.4656,2.4702,2.4651,2.4691,2.4693,2.4684,2.4791,2.4807,2.4884,2.4756,2.4758,2.476,0,2.4467,2.4493,2.457,2.4585,2.4599,2.4635,2.4662,2.4692,2.4711,2.4711,2.4731,2.4719,2.4762,2.4723,2.4782,2.4747,2.4764,2.4768,2.4771,2.4773,2.4729,2.4793,2.4909,2.4919,2.4777,2.4775,2.4774,0,2.4544,2.4598,2.465,2.4662,2.4682,2.4706,2.4716,2.4733,2.4752,2.4776,2.4788,2.4818,2.4834,2.4857,2.4852,2.4824,2.4911,2.4872,2.4911,2.4911,2.4929,2.4927,2.5046,2.4943,2.4943,2.4943,2.4943,0,2.4642,2.4689,2.4684,2.4716,2.4767,2.4759,2.481,2.4816,2.4831,2.4862,2.4845,2.4874,2.4868,2.4897,2.4894,2.4941,2.4949,2.4949,2.4948,2.495,2.4949,2.4959,2.4952,2.4946,2.4945,2.4945,2.4944,0,2.4735,2.4735,2.4789,2.4803,2.4807,2.4844,2.4855,2.4884,2.4886,2.4926,2.4935,2.4937,2.497,2.4968,2.5007,2.5004,2.5062,2.5055,2.5055,2.5053,2.509,2.5086,2.5218,2.5233,2.5123,2.5124,2.5125,0,2.4797,2.4832,2.4849,2.4868,2.4879,2.4911,2.493,2.4923,2.4943,2.4966,2.4992,2.5023,2.5048,2.5102,2.5107,2.5135,2.5127,2.5171,2.5131,2.5131,2.5125,2.5121,2.5124,2.5179,2.518,2.5181,2.5182,0,2.4905,2.4902,2.493,2.4957,2.498,2.5001,2.502,2.5037,2.5031,2.5055,2.5088,2.5107,2.5145,2.5176,2.5202,2.5211,2.5195,2.5195,2.5204,2.5206,2.5203,2.5202,2.5074,2.5191,2.519,2.519,2.5189,2.5189,2.4983,2.5012,2.5027,2.5058,2.5071,2.5089,2.5116,2.512,2.5148,2.5177,2.5171,2.5208,2.5224,2.5258,2.5269,2.5297,2.5281,2.5296,2.5299,2.5302,2.5305,2.52,2.5302,2.5302,2.5301,2.5301,2.5301,0,2.5087,2.5095,2.5124,2.515,2.5174,2.5157,2.5176,2.5197,2.5229,2.5246,2.5269,2.5306,2.5335,2.5342,2.5369,2.539,2.5383,2.5398,2.5395,2.5396,2.5319,2.5307,2.5402,2.5402,2.5402,2.5402,2.5402,2.5402,2.5144,2.5191,2.519,2.5243,2.5251,2.5286,2.5298,2.5314,2.5326,2.5368,2.5391,2.5395,2.5407,2.5434,2.546,2.5461,2.547,2.5487,2.5485,2.5412,2.5402,2.5392,2.538,2.549,2.549,2.5559,2.556,2.556]},{"header":{"parameterUnit":"m.s-1","parameterCategory":1,"la1":30.2991,"la2":30.254,"lo1":-89.0895,"lo2":-89.0444,"dy":0.0017,"dx":0.0017,"nx":28,"ny":28,"refTime":"2024-07-30T09:00:00:Z","depth":0,"parameterNumber":3,"parameterNumberName":"V-component_of_WINDS"},"data":[0,0,0,0,0,0,0,0,0,0,0,0,0,0,0,0,0,0,0,0,0,0,0,0,0,0,0,0,0,0,0,0,0,0,0,0,0,0,0,0,0,0,0,0,0,0,0,0,0,0,0,0,0,0,0,0,0,0,5.5805,5.5805,0,5.5818,5.5818,5.5818,5.5727,5.5725,5.5722,5.572,5.573,5.5733,5.5736,0,0,0,0,0,0,0,0,0,0,0,0,0,5.5699,5.5702,5.5805,5.5805,5.5805,5.5818,5.5818,5.5818,5.5728,5.5724,5.5721,5.5718,5.573,5.5733,5.5736,0,0,0,0,0,0,0,0,0,0,0,0,0,5.5732,5.5702,5.5805,5.5762,5.5758,5.5818,5.5818,5.5818,5.5728,5.5724,5.5721,5.5717,5.5728,5.5732,5.5736,5.5837,0,0,5.5748,5.575,0,0,0,0,0,0,0,0,5.573,5.5736,5.5768,5.5765,5.5761,5.5767,5.5784,5.5824,5.5729,5.574,5.572,5.5715,5.5746,5.5748,5.5759,5.5838,5.5838,5.5749,5.5751,5.5753,5.5754,0,0,0,0,0,0,0,5.5728,5.5735,5.581,5.5769,5.5764,5.5741,5.5741,5.5792,5.5764,5.5738,5.5732,5.5735,5.5743,5.5755,5.5758,5.5838,5.5749,5.5752,5.5755,5.5756,5.5999,5.6003,0,0,0,0,0,0,5.5732,5.5733,5.581,5.581,5.5736,5.5746,5.5746,5.5769,5.5763,5.5758,5.5738,5.573,5.575,5.5754,5.5758,5.5874,5.5753,5.5757,5.5759,5.5995,5.6,5.6004,0,0,0,0,0,0,5.573,5.574,5.5809,5.577,5.5777,5.5752,5.5778,5.5771,5.5783,5.5763,5.5757,5.5756,5.5747,5.5753,5.5818,5.5873,5.5758,5.5762,5.599,5.5996,5.6002,5.6108,0,0,0,0,0,0,5.5727,5.5739,5.5778,5.5772,5.578,5.587,5.5781,5.5774,5.579,5.5781,5.5778,5.5773,5.5745,5.5812,5.5822,5.5877,5.5765,5.5985,5.5993,5.6,5.61,5.6117,5.6132,0,0,0,0,0,5.5724,5.5808,5.5781,5.5791,5.5828,5.5873,5.5878,5.5843,5.5795,5.5833,5.582,5.5774,5.5866,5.582,5.583,5.5887,5.5981,5.5991,5.5999,5.6092,5.6114,5.6132,0,0,0,0,0,0,5.5821,5.5806,5.5776,5.5861,5.5869,5.5858,5.5905,5.5867,5.5889,5.5879,5.5835,5.5835,5.5907,5.5903,5.5852,5.5983,5.5915,5.5927,5.5982,5.6003,5.6019,5.6017,5.5768,0,0,0,0,0,5.5853,5.5892,5.5876,5.5952,5.5958,5.5931,5.595,5.5923,5.5929,5.5932,5.5923,5.5931,5.5961,5.5982,5.6009,5.6099,5.6096,5.6143,5.6159,5.6173,5.6183,5.6228,5.6249,5.6034,5.6034,5.6034,0,0,5.5918,5.5915,5.5942,5.5972,5.5975,5.6015,5.5935,5.5981,5.601,5.5938,5.5999,5.5993,5.5998,5.6076,5.611,5.6076,5.6242,5.6185,5.6196,5.6198,5.624,5.626,5.6278,5.604,5.6039,5.6038,0,0,5.6057,5.6059,5.6122,5.6126,5.6132,5.6114,5.6129,5.6123,5.6117,5.6177,5.6124,5.6157,5.6212,5.6217,5.6226,5.6366,5.6324,5.6377,5.6461,5.6506,5.6523,5.6538,5.6586,5.6603,5.6387,5.6387,5.6387,0,5.6137,5.6196,5.6158,5.6208,5.6222,5.616,5.6222,5.6228,5.6242,5.6253,5.6214,5.6279,5.6279,5.6356,5.639,5.6401,5.6415,5.6376,5.6524,5.6538,5.6551,5.6596,5.6615,5.6393,5.6393,5.6392,5.6391,0,5.6292,5.6334,5.6384,5.6399,5.6419,5.6475,5.6444,5.6469,5.644,5.6425,5.6486,5.6483,5.6508,5.6524,5.6497,5.6598,5.6576,5.6532,5.6462,5.6578,5.662,5.6637,5.6402,5.64,5.6398,5.6397,0,0,5.6492,5.6486,5.6505,5.651,5.6512,5.6543,5.6595,5.6619,5.664,5.6652,5.6693,5.674,5.6698,5.671,5.6682,5.6722,5.683,5.6672,5.6671,5.67,5.6939,5.6971,5.6992,5.6803,5.6806,5.6809,5.6938,0,5.6626,5.6715,5.6683,5.6773,5.681,5.6751,5.6796,5.6802,5.6789,5.6818,5.6803,5.6837,5.678,5.6786,5.6823,5.681,5.6877,5.68,5.6839,5.6841,5.6838,5.7014,5.7048,5.717,5.6954,5.6957,5.6959,0,5.6794,5.6812,5.6907,5.69,5.6915,5.6956,5.6974,5.7003,5.7007,5.6995,5.7008,5.6971,5.702,5.6953,5.7019,5.6967,5.6981,5.6977,5.6981,5.6981,5.6906,5.7018,5.7209,5.7226,5.6985,5.6982,5.6981,0,5.6927,5.6976,5.7038,5.7045,5.704,5.707,5.7069,5.7069,5.7086,5.7102,5.7112,5.7134,5.7146,5.7163,5.7133,5.7087,5.7203,5.7133,5.7193,5.7194,5.7219,5.7217,5.7413,5.7232,5.7231,5.7231,5.7231,0,5.7079,5.7138,5.7098,5.7136,5.72,5.7162,5.7227,5.7219,5.722,5.7255,5.7206,5.7239,5.7198,5.7228,5.7205,5.7262,5.7268,5.7259,5.7251,5.7262,5.7263,5.7269,5.7259,5.7236,5.7235,5.7234,5.7233,0,5.7238,5.7214,5.7278,5.7267,5.7266,5.7314,5.7304,5.7338,5.7323,5.7367,5.7375,5.735,5.7382,5.7354,5.7385,5.7369,5.7445,5.7426,5.7443,5.7437,5.7498,5.7492,5.7703,5.7728,5.7533,5.7535,5.7536,0,5.7336,5.738,5.7374,5.7394,5.7396,5.7429,5.7445,5.7409,5.7428,5.7436,5.7468,5.7496,5.7516,5.757,5.7553,5.7576,5.7557,5.7629,5.756,5.7569,5.7555,5.7552,5.7556,5.7643,5.7645,5.7647,5.7649,0,5.751,5.7496,5.7521,5.7542,5.7563,5.7578,5.7589,5.7608,5.757,5.7594,5.7626,5.7641,5.7672,5.77,5.7718,5.7715,5.7676,5.7671,5.7685,5.7696,5.7703,5.7698,5.748,5.7666,5.7664,5.7663,5.7662,5.7661,5.764,5.7676,5.7677,5.7706,5.7711,5.7722,5.7753,5.7741,5.7767,5.7789,5.7767,5.7805,5.7807,5.7826,5.7829,5.7858,5.7828,5.7849,5.7854,5.786,5.7868,5.77,5.7861,5.7861,5.786,5.786,5.786,0,5.781,5.7808,5.7835,5.7852,5.7875,5.7836,5.7846,5.7867,5.7902,5.7907,5.7928,5.7964,5.799,5.7976,5.7999,5.8024,5.8007,5.8031,5.8028,5.8028,5.7895,5.7879,5.8045,5.8045,5.8045,5.8045,5.8045,5.8045,5.7901,5.7959,5.7944,5.8003,5.8,5.8038,5.8046,5.8056,5.806,5.8102,5.8124,5.8115,5.8112,5.8134,5.8156,5.8151,5.8161,5.8192,5.818,5.8056,5.8037,5.802,5.8005,5.8195,5.8195,5.831,5.8312,5.8312]}]]